Location: Bronschhofen
(47.4788°N, 9.0353°E)
Time: 19:49:40
(UTC+00:00)

Helios 1A - Pass Details

Date: 20 May 2022
Orbit: 582 x 600 km, 98.2° (Epoch: 29 June)

Event Time Altitude Azimuth Distance (km) Brightness Sun altitude
Exits shadow 02:04:25 16° 186° (S) 1,579 4.7 -13.2°
Maximum altitude 02:07:36 51° 259° (W) 749 3.2 -12.8°
Drops below altitude 10° 02:11:44 10° 337° (NNW) 1,945 6.0 -12.4°
Sets 02:13:58 0° 342° (NNW) 2,855 6.9 -12.1°
